Location: Unspecified
(0.0000°N, 0.0000°E)
Time: 05:31:41
(UTC+02:00)

DELTA 2 R/B (1) - Visible Passes

Search period start: 23 June 2017 00:00
Search period end: 03 July 2017 00:00
Orbit: 790 x 803 km, 39.6° (Epoch: 22 June)

Date Brightness Start Highest point End Pass type
(mag) Time Alt. Az. Time Alt. Az. Time Alt. Az.
25 Jun 6.4 23:17:10 10° NNW 23:17:24 11° NNW 23:17:24 11° NNW visible
26 Jun 5.7 22:46:29 10° NNW 22:48:14 19° NNW 22:48:14 19° NNW visible
27 Jun 5.1 22:15:48 10° NNW 22:19:08 27° N 22:19:08 27° N visible
28 Jun 4.7 21:45:10 10° NNW 21:49:53 28° NE 21:50:05 28° NE visible
29 Jun 4.9 21:14:32 10° NNW 21:19:02 25° NE 21:21:05 20° ENE visible
29 Jun 5.8 23:00:01 10° WNW 23:01:52 21° WNW 23:01:52 21° WNW visible
30 Jun 5.1 20:43:57 10° N 20:48:12 22° NE 20:52:08 11° E visible
30 Jun 4.7 22:29:06 10° WNW 22:32:56 40° W 22:32:56 40° W visible
01 Jul 3.7 21:58:12 10° WNW 22:03:44 62° SW 22:04:02 61° SSW visible
02 Jul 3.7 21:27:20 10° NW 21:32:54 70° SW 21:35:10 36° SSE visible
